Flag for United Kingdom Weather past 2 weeks in Preston, England, United Kingdom

Now
61 °F

Passing clouds.


Feels Like: 61 °F
Forecast: 53 / 62 °F
Wind: 13 mph from South

Location: Blackpool Airport

Current Time: Jul 31, 2015 at 1:12:23 PM

Latest Report: Jul 31, 2015 at 12:20 PM


Visibility: N/A

Pressure: 30.04 "Hg

Humidity: 68%

Dew point: 50 °F

Location of PrestonLocation

Historic Weather in Preston — Graph

°F

Preston temperature yesterday

Maximum temperature yesterday: 61 °F (at 2:50 PM)
Minimum temperature yesterday: 55 °F (at 6:20 AM)
Average temperature yesterday: 58 °F

Past Weeks' High & Low Weather Summary

 TemperatureHumidityPressure
High73 °F (Jul 16, 2:50 PM)94% (Jul 22, 8:20 AM)30.12 "Hg (Jul 22, 8:20 AM)
Low50 °F (Jul 26, 6:20 AM)47% (Jul 16, 12:50 PM)29.33 "Hg (Jul 26, 8:50 PM)
Average60 °F73%29.82 "Hg
* Reported Jul 16 11:20 AM — Jul 31 11:50 AM, Preston, Weather by CustomWeather, © 2015

Note: Actual official high and low records may vary slightly from our data, if they occured in-between our weather recording intervals... More about our weather records

Advertising

Preston weather history for previous 24 hours

 ConditionsComfort  
Time TempWeatherWind HumidityBarometerVisibility
11:50 AM
Fri, Jul 31
61 °FPassing clouds.12 mph63%30.04 "HgN/A
10:50 AM57 °FPassing clouds.8 mph77%30.07 "HgN/A
10:20 AM55 °FPassing clouds.9 mph77%30.07 "HgN/A
9:50 AM54 °FPassing clouds.8 mph82%30.07 "HgN/A
9:20 AM54 °FPassing clouds.9 mph82%30.07 "HgN/A
8:20 AM50 °FScattered clouds.8 mph88%30.09 "HgN/A
7:50 AM50 °FScattered clouds.9 mph82%30.09 "HgN/A
7:20 AM50 °FScattered clouds.9 mph82%30.09 "HgN/A
6:50 AM50 °FScattered clouds.8 mph82%30.09 "HgN/A
6:20 AM50 °FPassing clouds.7 mph82%30.09 "HgN/A
8:20 PM
Thu, Jul 30
59 °FScattered clouds.10 mph59%30.12 "HgN/A
7:50 PM59 °FScattered clouds.12 mph59%30.12 "HgN/A
7:20 PM59 °FScattered clouds.12 mph59%30.12 "HgN/A
6:20 PM59 °FScattered clouds.14 mph59%30.12 "HgN/A
5:50 PM59 °FPassing clouds.14 mph55%30.12 "HgN/A
5:20 PM61 °FPassing clouds.16 mph52%30.12 "HgN/A
4:50 PM61 °FPassing clouds.15 mph52%30.12 "HgN/A
3:50 PM61 °FPassing clouds.15 mph52%30.12 "HgN/A
3:20 PM61 °FPassing clouds.16 mph52%30.12 "HgN/A
2:50 PM61 °FPassing clouds.16 mph55%30.12 "HgN/A
2:20 PM59 °FPassing clouds.16 mph59%30.12 "HgN/A
1:50 PM59 °FPassing clouds.15 mph55%30.12 "HgN/A
1:20 PM59 °FPassing clouds.16 mph59%30.12 "HgN/A
Weather by CustomWeather, © 2015

See weather overviewHow to use our weather pages